Regional Weather Roundup
Issued by NWS Sioux Falls, SD

Home | Current Version | Previous Version | Graphics & Text | Print | Product List | Glossary Off
Versions: 1 2 3 4 5 6 7 8 9 10 11 12 13 14 15 16 17 18 19 20 21 22 23 24 25 26 27 28 29 30 31 32 33 34 35 36 37 38 39 40 41 42 43 44 45 46 47 48 49 50

000
ASUS43 KFSD 271002
RWRFSD

WEATHER ROUNDUP FOR SE SOUTH DAKOTA/SW MINNESOTA/NW IOWA
NATIONAL WEATHER SERVICE SIOUX FALLS SD
500 AM CDT SAT AUG 27 2016

NOTE: "FAIR" INDICATES FEW OR NO CLOUDS BELOW 12,000 FEET WITH NO
SIGNIFICANT WEATHER AND OR OBSTRUCTIONS TO VISIBILITY.


SDZ038>040-050-052>070-271100-
SOUTHEAST SOUTH DAKOTA

CITY           SKY/WX    TMP DP  RH WIND       PRES   REMARKS
BROOKINGS      CLOUDY    60  58  92 SE7       30.02R
CHAMBERLAIN    CLEAR     58  58 100 SE3       30.00S
HURON          CLEAR     57  56  96 SE5       29.99S
MADISON        CLOUDY    59  59 100 S8        30.03S
MITCHELL       CLOUDY    63  61  93 SE10      30.00S
SIOUX FALLS    LGT RAIN  61  61 100 E3        30.01S FOG
WINNER         FAIR      60  57  89 S10       29.98F
YANKTON        CLOUDY    63  59  88 CALM      30.00S
$$

MNZ071-072-080-081-089-090-097-098-271100-
SOUTHWEST MINNESOTA

CITY           SKY/WX    TMP DP  RH WIND       PRES   REMARKS
FAIRMONT       LGT RAIN  61  59  93 SE5       30.03F
JACKSON          N/A     61  55  82 SE5       30.04R
LUVERNE        DRIZZLE   59  55  88 NE5       30.02S
MARSHALL       LGT RAIN  60  59  96 S9        30.02F
MONTEVIDEO     CLOUDY    61  59  94 S3        30.05S
REDWOOD FALLS  LGT RAIN  61  58  90 SE3       30.04R
TRACY          RAIN      62  61  96 S3        30.03F
WINDOM         LGT RAIN  61  59  94 CALM      30.03F
WORTHINGTON    CLOUDY    60  58  92 E3        30.02F
$$

IAZ001>003-012>014-020>022-031-032-NEZ013-014-SDZ071-271100-
NORTHWEST IOWA

CITY           SKY/WX    TMP DP  RH WIND       PRES   REMARKS
CHEROKEE       CLOUDY    61  61  98 SE3       30.00F
DENISON        FOG       63  63 100 E6        29.99S VSB 1
ESTHERVILLE    LGT RAIN  58  58 100 S5        30.03S FOG
LE MARS        CLOUDY    63  61  94 S5        30.01S
ORANGE CITY    CLOUDY    61  61 100 CALM      30.01R
SHELDON        CLOUDY    61  61 100 SE5       29.99F
SIOUX CITY     CLOUDY    64  61  90 SE7       30.00S
SPENCER        CLOUDY    60  59  96 E6        30.03S
STORM LAKE     CLOUDY    61  59  94 SE6       30.02F FOG
$$

ABBREVIATIONS USED IN REMARKS
   TC - TEMPERATURE IN CELSIUS
  WCI - WIND CHILL INDEX
   HX - HEAT INDEX
  VSB - VISIBILITY





USA.gov is the U.S. government's official web portal to all federal, state and local government web resources and services.